NT2C Weather Reports


Display with metric or nautical units.
time (UTC)temp
F
wind
direction
speed
MPH
gust
MPH
rain 1hr
in
rain 24hr
in
rain mn
in
humidity
%
barometer
mb
20260831212509 86 15 0.0 4.0 0.00 0.00 0.00 71 1010.6
20260831212009 87 20 0.0 4.0 0.00 0.00 0.00 71 1010.6
20260831211515 87 15 1.0 3.0 0.00 0.00 0.00 70 1010.5
20260831211008 87 359 0.0 3.0 0.00 0.00 0.00 70 1010.5
20260831210509 87 314 1.0 3.0 0.00 0.00 0.00 70 1010.7
20260831210009 88 296 0.0 5.0 0.00 0.00 0.00 69 1010.6
20260831205509 88 282 2.0 5.0 0.00 0.00 0.00 69 1010.6
20260831205008 88 99 1.0 5.0 0.00 0.00 0.00 69 1010.4
20260831204517 89 68 1.0 4.0 0.00 0.00 0.00 68 1010.4
20260831204008 89 315 0.0 1.0 0.00 0.00 0.00 69 1010.5
20260831203507 88 59 0.0 2.0 0.00 0.00 0.00 69 1010.4
20260831203130 88 50 0.0 4.0 0.00 0.00 0.00 69 1010.5
20260831202505 88 342 1.0 4.0 0.00 0.00 0.00 68 1010.6
20260831202007 89 335 0.0 4.0 0.00 0.00 0.00 69 1010.6
20260831201505 89 19 2.0 4.0 0.00 0.00 0.00 68 1010.7
20260831201005 88 136 0.0 2.0 0.00 0.00 0.00 69 1010.7
20260831200504 87 102 0.0 3.0 0.00 0.00 0.00 71 1010.7
20260831200008 87 58 1.0 3.0 0.00 0.00 0.00 72 1010.7
20260831195504 86 104 0.0 3.0 0.00 0.00 0.00 72 1010.8
20260831195004 86 134 0.0 3.0 0.00 0.00 0.00 72 1010.7
20260831194505 86 90 0.0 3.0 0.00 0.00 0.00 72 1010.8
20260831194007 86 94 0.0 3.0 0.00 0.00 0.00 72 1010.8
20260831193504 86 82 0.0 2.0 0.00 0.00 0.00 72 1010.9
20260831193005 86 91 0.0 3.0 0.00 0.00 0.00 73 1010.9
20260831192503 86 28 1.0 4.0 0.00 0.00 0.00 72 1011.0
20260831192002 86 68 0.0 4.0 0.00 0.00 0.00 72 1011.1
20260831191502 86 34 0.0 5.0 0.00 0.00 0.00 73 1011.2
20260831191003 87 49 1.0 5.0 0.00 0.00 0.00 70 1011.1
20260831190502 88 64 0.0 1.0 0.00 0.00 0.00 71 1011.2
20260831190002 88 110 0.0 1.0 0.00 0.00 0.00 71 1011.2
20260831185503 88 98 0.0 2.0 0.00 0.00 0.00 70 1011.0
20260831185001 88 84 0.0 2.0 0.00 0.00 0.00 69 1011.0
20260831184502 88 116 0.0 2.0 0.00 0.00 0.00 70 1011.1
20260831184001 88 122 0.0 1.0 0.00 0.00 0.00 69 1011.1
20260831183502 88 124 0.0 2.0 0.00 0.00 0.00 70 1011.0
20260831183002 88 122 0.0 3.0 0.00 0.00 0.00 68 1011.1
20260831182600 89 115 0.0 3.0 0.00 0.00 0.00 68 1011.1
20260831182101 89 88 0.0 2.0 0.00 0.00 0.00 69 1011.1
20260831181604 90 94 0.0 2.0 0.00 0.00 0.00 67 1011.2
20260831181059 89 221 0.0 6.0 0.00 0.00 0.00 69 1011.3
20260831180558 89 18 1.0 6.0 0.00 0.00 0.00 68 1011.5
20260831180058 89 176 0.0 3.0 0.00 0.00 0.00 69 1011.3
20260831175556 88 137 0.0 3.0 0.00 0.00 0.00 69 1011.4
20260831175055 88 117 1.0 2.0 0.00 0.00 0.00 70 1011.5
20260831174555 87 209 1.0 5.0 0.00 0.00 0.00 70 1011.5
20260831174054 87 139 1.0 5.0 0.00 0.00 0.00 70 1011.6
20260831173555 87 290 0.0 3.0 0.00 0.00 0.00 72 1011.6
20260831173055 86 96 0.0 4.0 0.00 0.00 0.00 72 1011.5
20260831172553 86 331 1.0 5.0 0.00 0.00 0.00 72 1011.6
20260831172053 86 53 2.0 6.0 0.00 0.00 0.00 72 1011.7
20260831171553 86 122 1.0 6.0 0.00 0.00 0.00 72 1011.8
20260831171052 86 323 2.0 5.0 0.00 0.00 0.00 71 1011.9
20260831171022 86 347 2.0 5.0 0.00 0.00 0.00 71 1011.9
20260831170553 87 306 1.0 5.0 0.00 0.00 0.00 72 1012.0
20260831170055 86 18 2.0 5.0 0.00 0.00 0.00 71 1012.1
20260831165551 87 58 2.0 5.0 0.00 0.00 0.00 71 1012.0
20260831165051 87 80 2.0 6.0 0.00 0.00 0.00 71 1012.1
20260831164551 87 106 1.0 4.0 0.00 0.00 0.00 71 1012.2
20260831164050 87 74 1.0 3.0 0.00 0.00 0.00 71 1012.1
20260831163550 87 11 0.0 3.0 0.00 0.00 0.00 72 1012.1
20260831163049 86 75 1.0 3.0 0.00 0.00 0.00 73 1012.2
20260831162547 86 117 1.0 4.0 0.00 0.00 0.00 73 1012.2
20260831162048 85 309 1.0 4.0 0.00 0.00 0.00 72 1012.2
20260831161546 85 77 1.0 5.0 0.00 0.00 0.00 73 1012.1
20260831161045 85 51 1.0 4.0 0.00 0.00 0.00 74 1012.2
20260831160545 85 112 0.0 3.0 0.00 0.00 0.00 74 1012.2
20260831160054 85 97 1.0 3.0 0.00 0.00 0.00 75 1012.2
20260831155543 84 132 0.0 5.0 0.00 0.00 0.00 76 1012.1
20260831155043 84 84 1.0 5.0 0.00 0.00 0.00 75 1012.2
20260831154552 84 122 1.0 3.0 0.00 0.00 0.00 74 1012.1
20260831154042 84 60 0.0 7.0 0.00 0.00 0.00 75 1012.1
20260831153541 83 93 3.0 7.0 0.00 0.00 0.00 74 1012.1
20260831153040 83 75 0.0 3.0 0.00 0.00 0.00 76 1012.0
20260831152539 83 60 0.0 6.0 0.00 0.00 0.00 77 1011.9
20260831152043 83 98 2.0 6.0 0.00 0.00 0.00 77 1011.9
20260831151539 83 4 1.0 8.0 0.00 0.00 0.00 77 1011.8
20260831151039 82 61 3.0 8.0 0.00 0.00 0.00 77 1011.9
20260831150539 83 65 1.0 5.0 0.00 0.00 0.00 77 1011.9
20260831150049 83 109 0.0 5.0 0.00 0.00 0.00 77 1011.8
20260831145537 83 13 1.0 5.0 0.00 0.00 0.00 77 1011.8
20260831145037 83 96 1.0 4.0 0.00 0.00 0.00 78 1011.8
20260831144539 82 79 1.0 4.0 0.00 0.00 0.00 77 1011.9
20260831144037 82 108 0.0 4.0 0.00 0.00 0.00 77 1011.8
20260831143536 82 93 0.0 3.0 0.00 0.00 0.00 78 1011.7
20260831143037 82 108 0.0 4.0 0.00 0.00 0.00 80 1011.8
20260831142535 81 27 1.0 4.0 0.00 0.00 0.00 79 1011.8
20260831142033 81 10 0.0 5.0 0.00 0.00 0.00 79 1011.9
20260831141532 81 21 1.0 4.0 0.00 0.00 0.00 80 1011.7
20260831141032 80 20 2.0 5.0 0.00 0.00 0.00 79 1011.7
20260831093009 69 233 0.0 1.0 0.00 0.00 0.00 93 1010.8
20260831092514 69 233 0.0 0.0 0.00 0.00 0.00 93 1010.8
20260831092009 69 233 0.0 0.0 0.00 0.00 0.00 93 1010.7
20260831091514 69 233 0.0 0.0 0.00 0.00 0.00 93 1010.7
20260831091008 69 233 0.0 0.0 0.00 0.00 0.00 93 1010.7
20260831090509 69 233 0.0 0.0 0.00 0.00 0.00 93 1010.8
20260831090008 69 232 0.0 0.0 0.00 0.00 0.00 93 1010.8
20260831085507 70 233 0.0 0.0 0.00 0.00 0.00 93 1010.9
20260831085012 70 233 0.0 0.0 0.00 0.00 0.00 93 1010.9
20260831084509 70 233 0.0 0.0 0.00 0.00 0.00 93 1010.9
20260831084004 70 233 0.0 0.0 0.00 0.00 0.00 93 1010.9
20260831083505 70 233 0.0 0.0 0.00 0.00 0.00 93 1010.8
20260831083005 70 233 0.0 0.0 0.00 0.00 0.00 93 1010.8
20260831082504 70 233 0.0 0.0 0.00 0.00 0.00 92 1010.8
20260831082006 70 233 0.0 0.0 0.00 0.00 0.00 92 1010.8
20260831081503 70 233 0.0 0.0 0.00 0.00 0.00 92 1010.8
20260831081002 70 233 0.0 0.0 0.00 0.00 0.00 92 1010.7
20260831080504 70 233 0.0 0.0 0.00 0.00 0.00 92 1010.8
20260831080000 70 232 0.0 0.0 0.00 0.00 0.00 92 1010.7
20260831075600 70 233 0.0 0.0 0.00 0.00 0.00 92 1010.8
20260831075103 70 233 0.0 0.0 0.00 0.00 0.00 92 1010.8
20260831074558 71 232 0.0 0.0 0.00 0.00 0.00 92 1010.8
20260831074102 71 233 0.0 0.0 0.00 0.00 0.00 92 1010.8
20260831073558 71 233 0.0 0.0 0.00 0.00 0.00 92 1010.8
20260831073058 71 232 0.0 0.0 0.00 0.00 0.00 92 1010.8
20260831072557 71 232 0.0 0.0 0.00 0.00 0.00 92 1010.7
20260831072058 71 233 0.0 0.0 0.00 0.00 0.00 91 1010.7
20260831071557 71 233 0.0 0.0 0.00 0.00 0.00 91 1010.7
20260831071101 71 233 0.0 0.0 0.00 0.00 0.00 91 1010.6
20260831070556 71 233 0.0 0.0 0.00 0.00 0.00 91 1010.6
20260831070058 71 233 0.0 1.0 0.00 0.00 0.00 91 1010.6
20260831065555 71 232 0.0 1.0 0.00 0.00 0.00 91 1010.7
20260831065054 71 233 0.0 0.0 0.00 0.00 0.00 91 1010.7
20260831064607 71 233 0.0 0.0 0.00 0.00 0.00 91 1010.7
20260831064053 71 233 0.0 1.0 0.00 0.00 0.00 91 1010.7
20260831063553 72 234 0.0 1.0 0.00 0.00 0.00 91 1010.8
20260831063053 72 96 0.0 1.0 0.00 0.00 0.00 91 1010.8
20260831062552 72 88 0.0 1.0 0.00 0.00 0.00 91 1010.8
20260831062055 72 89 0.0 1.0 0.00 0.00 0.00 90 1010.8
20260831061550 72 89 0.0 1.0 0.00 0.00 0.00 91 1010.9
20260831061049 72 89 0.0 1.0 0.00 0.00 0.00 90 1010.9
20260831060548 72 89 0.0 2.0 0.00 0.00 0.00 90 1010.9
20260831060049 72 89 0.0 2.0 0.00 0.00 0.00 90 1010.9
20260831055548 72 89 0.0 1.0 0.00 0.00 0.00 90 1010.9
20260831055047 73 86 0.0 1.0 0.00 0.00 0.00 90 1010.9
20260831054600 73 86 0.0 1.0 0.00 0.00 0.00 90 1011.0
20260831054047 73 120 0.0 1.0 0.00 0.00 0.00 90 1011.0
20260831053550 73 120 0.0 1.0 0.00 0.00 0.00 90 1011.1
20260831053046 73 120 0.0 0.0 0.00 0.00 0.00 89 1011.1
20260831052545 73 234 0.0 0.0 0.00 0.00 0.00 89 1011.2
20260831052044 73 234 0.0 0.0 0.00 0.00 0.00 89 1011.3
20260831051546 73 234 0.0 0.0 0.00 0.00 0.00 89 1011.2
20260831051042 73 234 0.0 0.0 0.00 0.00 0.00 88 1011.3
20260831050543 73 234 0.0 0.0 0.00 0.00 0.00 88 1011.4
20260831050042 73 234 0.0 1.0 0.00 0.00 0.00 88 1011.4
20260831045541 73 234 0.0 0.0 0.00 0.00 0.00 88 1011.4
20260831045042 73 234 0.0 0.0 0.00 0.00 0.00 88 1011.4
20260831044547 74 234 0.0 0.0 0.00 0.00 0.00 87 1011.4
20260831044044 74 234 0.0 0.0 0.00 0.00 0.00 87 1011.3
20260831043539 74 234 0.0 0.0 0.00 0.00 0.00 87 1011.2
20260831043038 74 234 0.0 1.0 0.00 0.00 0.00 87 1011.2
20260831042538 74 234 0.0 1.0 0.00 0.00 0.00 87 1011.2
20260831042036 74 234 0.0 1.0 0.00 0.00 0.00 87 1011.3
20260831041549 74 233 0.0 1.0 0.00 0.00 0.00 88 1011.3
20260831041035 74 285 0.0 0.0 0.00 0.00 0.00 88 1011.4
20260831040534 74 285 0.0 0.0 0.00 0.00 0.00 87 1011.3
20260831040039 74 285 0.0 0.0 0.00 0.00 0.00 87 1011.4
20260831035530 74 285 0.0 0.0 0.00 0.00 0.00 87 1011.5
20260831035031 74 285 0.0 0.0 0.00 0.00 0.00 87 1011.4
20260831034531 74 285 0.0 0.0 0.00 0.00 0.00 87 1011.7
20260831034032 74 285 0.0 0.0 0.00 0.00 0.00 87 1011.7
20260831033531 74 285 0.0 0.0 0.00 0.00 0.00 87 1011.8
20260831033031 74 285 0.0 1.0 0.00 0.00 0.00 87 1011.9
20260831032532 74 252 0.0 1.0 0.00 0.00 0.00 87 1011.8
20260831032030 74 252 0.0 1.0 0.00 0.00 0.00 87 1011.9
20260831031531 74 252 0.0 0.0 0.00 0.00 0.00 87 1011.8
20260831031030 74 252 0.0 0.0 0.00 0.00 0.00 87 1012.0
20260831030529 74 252 0.0 1.0 0.00 0.00 0.00 86 1012.0
20260831030030 74 252 0.0 1.0 0.00 0.00 0.00 86 1012.2
20260831025529 74 252 0.0 1.0 0.00 0.00 0.00 86 1012.2
20260831025029 74 252 0.0 1.0 0.00 0.00 0.00 86 1012.3
20260831024529 74 238 0.0 5.0 0.00 0.00 0.00 86 1012.3
20260831024030 74 254 0.0 5.0 0.00 0.00 0.00 85 1012.5
20260831023529 74 236 0.0 2.0 0.00 0.00 0.00 85 1012.2
20260831023028 74 72 0.0 0.0 0.00 0.00 0.00 84 1012.1
20260831022528 74 72 0.0 0.0 0.00 0.00 0.00 84 1012.1
20260831022028 74 72 0.0 0.0 0.00 0.00 0.00 84 1012.1
20260831021528 74 72 0.0 0.0 0.00 0.00 0.00 84 1012.1
20260831021028 74 72 0.0 0.0 0.00 0.00 0.00 84 1012.2
20260831020528 74 72 0.0 0.0 0.00 0.00 0.00 83 1012.1
20260831020028 74 72 0.0 0.0 0.00 0.00 0.00 83 1012.1
20260831015527 74 72 0.0 0.0 0.00 0.00 0.00 83 1012.1
20260831015027 74 72 0.0 0.0 0.00 0.00 0.00 83 1012.1
20260831014533 74 72 0.0 0.0 0.00 0.00 0.00 82 1012.2
20260831014027 74 72 0.0 0.0 0.00 0.00 0.00 82 1012.1
20260831013527 75 72 0.0 0.0 0.00 0.00 0.00 82 1012.2
20260831013027 75 72 0.0 1.0 0.00 0.00 0.00 82 1012.1
20260831012527 75 72 0.0 1.0 0.00 0.00 0.00 82 1012.1
20260831012026 75 72 0.0 1.0 0.00 0.00 0.00 82 1012.1
20260831011534 75 72 0.0 1.0 0.00 0.00 0.00 81 1012.1
20260831011026 75 72 0.0 1.0 0.00 0.00 0.00 82 1012.0
20260831010526 75 71 0.0 1.0 0.00 0.00 0.00 81 1012.0
20260831010026 75 69 0.0 3.0 0.00 0.00 0.00 81 1012.0
20260831005520 76 4 0.0 3.0 0.00 0.00 0.00 80 1011.9
20260831005020 76 46 0.0 2.0 0.00 0.00 0.00 80 1011.8
20260831004520 77 27 0.0 3.0 0.00 0.00 0.00 79 1011.8
20260831004020 77 34 0.0 2.0 0.00 0.00 0.00 79 1011.7
20260831003520 77 354 0.0 2.0 0.00 0.00 0.00 78 1011.7
20260831003020 78 316 0.0 2.0 0.00 0.00 0.00 77 1011.7
20260831002520 78 224 0.0 1.0 0.00 0.00 0.00 77 1011.4
20260831002019 78 224 0.0 1.0 0.00 0.00 0.00 77 1011.3
20260831001519 78 223 0.0 2.0 0.00 0.00 0.00 76 1011.2
20260831001020 78 210 0.0 3.0 0.00 0.00 0.00 76 1011.0
20260831000519 77 172 0.0 3.0 0.00 0.00 0.00 77 1011.2
20260831000019 77 190 0.0 1.0 0.00 0.00 0.00 77 1011.2
20260830235518 77 167 0.0 0.0 0.00 0.00 0.00 77 1011.3
20260830235020 77 167 0.0 2.0 0.00 0.00 0.00 76 1011.3
20260830234519 78 174 0.0 3.0 0.00 0.00 0.00 75 1011.4
20260830234018 78 238 0.0 6.0 0.00 0.00 0.00 75 1011.6
20260830233517 79 233 0.0 7.0 0.00 0.00 0.00 74 1011.7
20260830233019 79 285 2.0 8.0 0.00 0.00 0.00 73 1011.8
20260830232517 80 275 2.0 11.0 0.00 0.00 0.00 74 1011.9
20260830232016 81 205 4.0 11.0 0.00 0.00 0.00 73 1011.9
20260830231516 82 308 2.0 8.0 0.00 0.00 0.00 73 1011.9
20260830231020 82 240 3.0 7.0 0.00 0.00 0.00 73 1011.9
20260830230520 83 212 0.0 4.0 0.00 0.00 0.00 74 1011.9
20260830230016 83 242 1.0 3.0 0.00 0.00 0.00 73 1011.8
20260830225516 83 238 1.0 4.0 0.00 0.00 0.00 73 1011.7
20260830225015 83 220 0.0 4.0 0.00 0.00 0.00 73 1011.6
20260830224515 83 243 0.0 2.0 0.00 0.00 0.00 73 1011.5
20260830224015 84 243 0.0 2.0 0.00 0.00 0.00 72 1011.4
20260830223515 84 231 0.0 2.0 0.00 0.00 0.00 72 1011.4
20260830223015 84 232 0.0 2.0 0.00 0.00 0.00 72 1011.2
20260830222514 84 203 0.0 4.0 0.00 0.00 0.00 71 1011.1
20260830222015 84 205 1.0 4.0 0.00 0.00 0.00 71 1011.2
20260830221514 84 214 1.0 5.0 0.00 0.00 0.00 70 1011.1
20260830221017 84 203 2.0 5.0 0.00 0.00 0.00 70 1011.1
20260830220514 85 221 1.0 4.0 0.00 0.00 0.00 70 1011.2
20260830220019 85 227 1.0 4.0 0.00 0.00 0.00 70 1011.1
20260830215513 85 171 1.0 6.0 0.00 0.00 0.00 69 1011.1
20260830215013 85 222 3.0 6.0 0.00 0.00 0.00 68 1011.2
20260830214512 86 210 1.0 8.0 0.00 0.00 0.00 68 1011.0
20260830214112 86 184 3.0 8.0 0.00 0.00 0.00 67 1011.1
20260830213512 87 202 1.0 10.0 0.00 0.00 0.00 67 1011.1
20260830213011 87 213 5.0 10.0 0.00 0.00 0.00 66 1011.1